[[{"header":{"parameterUnit":"m.s-1","parameterCategory":1,"la1":30.2991,"la2":30.254,"lo1":-89.0895,"lo2":-89.0444,"dy":0.0017,"dx":0.0017,"nx":28,"ny":28,"refTime":"2024-04-18T03:00:00:Z","depth":0,"parameterNumber":2,"parameterNumberName":"U-component_of_WINDS"},"data":[0,0,0,0,0,0,0,0,0,0,0,0,0,0,0,0,0,0,0,0,0,0,0,0,0,0,0,0,0,0,0,0,0,0,0,0,0,0,0,0,0,0,0,0,0,0,0,0,0,0,0,0,0,0,0,0,0,0,0.0605,0.0605,0,0.0673,0.0674,0.0675,0.0704,0.0704,0.0704,0.0704,0.0774,0.0776,0.0778,0,0,0,0,0,0,0,0,0,0,0,0,0,0.0499,0.0501,0.0605,0.0605,0.0606,0.0673,0.0674,0.0675,0.0704,0.0704,0.0704,0.0704,0.0773,0.0775,0.0778,0,0,0,0,0,0,0,0,0,0,0,0,0,0.0554,0.0501,0.0604,0.0629,0.0632,0.0673,0.0674,0.0675,0.0704,0.0704,0.0704,0.0704,0.0772,0.0775,0.0778,0.0799,0,0,0.0787,0.0788,0,0,0,0,0,0,0,0,0.0551,0.0558,0.0625,0.0628,0.0631,0.068,0.0662,0.0717,0.0704,0.0677,0.0704,0.0704,0.0743,0.0748,0.0761,0.0803,0.0806,0.0787,0.0789,0.079,0.0791,0,0,0,0,0,0,0,0.0547,0.0555,0.0632,0.0626,0.0629,0.0636,0.0644,0.0673,0.071,0.0679,0.0682,0.0689,0.0744,0.0758,0.0763,0.0807,0.0787,0.079,0.0792,0.0793,0.0868,0.0868,0,0,0,0,0,0,0.0539,0.0551,0.063,0.0634,0.059,0.0638,0.0647,0.0664,0.071,0.0716,0.0689,0.069,0.0753,0.076,0.0766,0.0793,0.079,0.0793,0.0795,0.0868,0.0868,0.0869,0,0,0,0,0,0,0.0537,0.0546,0.0627,0.0593,0.0604,0.064,0.066,0.0666,0.068,0.0717,0.0724,0.0697,0.0754,0.0762,0.0791,0.0796,0.0794,0.0797,0.0868,0.0868,0.0868,0.0848,0,0,0,0,0,0,0.0534,0.0545,0.0553,0.0593,0.0606,0.0651,0.066,0.0667,0.0685,0.0687,0.0726,0.0732,0.0754,0.0786,0.0793,0.08,0.0799,0.0867,0.0868,0.0868,0.0849,0.0848,0.0848,0,0,0,0,0,0.053,0.0545,0.0554,0.0563,0.0617,0.0651,0.0658,0.0683,0.0685,0.0694,0.0718,0.0731,0.0794,0.0789,0.0797,0.0805,0.0867,0.0868,0.0868,0.0849,0.0848,0.0848,0,0,0,0,0,0,0.0505,0.0551,0.0561,0.059,0.0616,0.0656,0.0668,0.0681,0.0708,0.0708,0.0738,0.0746,0.0773,0.0792,0.0785,0.0827,0.0832,0.0834,0.0814,0.0814,0.0813,0.0808,0.0802,0,0,0,0,0,0.0503,0.0527,0.0565,0.0587,0.06,0.0631,0.0647,0.0664,0.0692,0.0704,0.073,0.0757,0.0783,0.0799,0.0825,0.0852,0.086,0.0861,0.086,0.0859,0.0861,0.0876,0.0877,0.087,0.087,0.087,0,0,0.0499,0.0527,0.054,0.0583,0.0605,0.0629,0.0641,0.0665,0.0683,0.0707,0.0736,0.0756,0.0789,0.0816,0.083,0.0833,0.0865,0.086,0.0859,0.0862,0.0877,0.0877,0.0878,0.0871,0.0871,0.0871,0,0,0.0504,0.0527,0.0548,0.057,0.0604,0.0625,0.0629,0.0667,0.0681,0.0711,0.0729,0.0751,0.0795,0.0817,0.0834,0.0846,0.0859,0.0853,0.085,0.0864,0.0865,0.0866,0.087,0.0871,0.0855,0.0855,0.0855,0,0.0494,0.0531,0.0557,0.058,0.0598,0.0621,0.0642,0.0662,0.0702,0.0714,0.0717,0.0772,0.0796,0.0829,0.0832,0.0845,0.0851,0.0849,0.0863,0.0864,0.0865,0.0869,0.087,0.0854,0.0854,0.0854,0.0854,0,0.0518,0.0543,0.0555,0.0594,0.0613,0.0635,0.0663,0.068,0.0694,0.0715,0.0744,0.0773,0.0805,0.0814,0.0828,0.0849,0.085,0.0857,0.0862,0.0864,0.0868,0.087,0.0853,0.0853,0.0853,0.0854,0,0,0.051,0.0562,0.0566,0.0583,0.0622,0.0641,0.0664,0.0695,0.0708,0.0735,0.0755,0.0791,0.0798,0.0818,0.0835,0.0847,0.0855,0.0853,0.0855,0.0853,0.0878,0.0873,0.0874,0.0863,0.0864,0.0864,0.0876,0,0.052,0.0562,0.0585,0.0617,0.064,0.0662,0.0681,0.0707,0.0726,0.0748,0.077,0.0795,0.0803,0.0814,0.0828,0.0851,0.086,0.085,0.0882,0.0883,0.0873,0.0877,0.0871,0.088,0.0878,0.0878,0.0878,0,0.0537,0.0564,0.0598,0.0633,0.0644,0.0661,0.0691,0.0712,0.0741,0.0755,0.0776,0.0793,0.0817,0.0819,0.0853,0.0846,0.086,0.0873,0.0874,0.0878,0.0881,0.0881,0.0884,0.0885,0.0881,0.0881,0.0881,0,0.0528,0.0572,0.0598,0.0612,0.0654,0.0666,0.0684,0.0713,0.073,0.0756,0.0767,0.0796,0.0811,0.0833,0.0857,0.0857,0.0888,0.0893,0.09,0.0899,0.0906,0.0906,0.0912,0.0915,0.0915,0.0915,0.0915,0,0.0537,0.0557,0.0594,0.061,0.0633,0.066,0.0681,0.0701,0.0727,0.0747,0.0767,0.0785,0.0816,0.0838,0.0857,0.0882,0.0889,0.09,0.0905,0.0898,0.0897,0.0908,0.0908,0.0915,0.0915,0.0915,0.0915,0,0.053,0.0556,0.0586,0.0623,0.0633,0.0648,0.068,0.0696,0.0716,0.0741,0.0748,0.078,0.0807,0.0833,0.0869,0.0882,0.0907,0.0913,0.0897,0.0899,0.0905,0.0904,0.0919,0.0922,0.0923,0.0923,0.0922,0,0.0534,0.055,0.0589,0.0604,0.0621,0.0645,0.0663,0.0689,0.0706,0.074,0.0752,0.078,0.0804,0.0846,0.0872,0.09,0.0907,0.091,0.0911,0.0904,0.0907,0.0906,0.0908,0.091,0.091,0.0909,0.0909,0,0.0539,0.0551,0.0575,0.0604,0.0624,0.0648,0.0672,0.0683,0.0714,0.0732,0.076,0.0778,0.0815,0.0843,0.0873,0.0891,0.0905,0.0909,0.0912,0.0906,0.0896,0.0901,0.0895,0.0908,0.0909,0.0909,0.0909,0.0909,0.0538,0.0553,0.0582,0.0609,0.063,0.0652,0.0669,0.0691,0.0715,0.0746,0.076,0.0788,0.0816,0.0859,0.0877,0.0899,0.0902,0.0907,0.0908,0.0909,0.0907,0.0892,0.0904,0.0904,0.0904,0.0904,0.0904,0,0.0543,0.0563,0.0587,0.0621,0.0641,0.0652,0.068,0.0696,0.072,0.0746,0.0769,0.08,0.0827,0.0855,0.0883,0.0895,0.0903,0.0902,0.0902,0.0906,0.0902,0.0897,0.0896,0.0896,0.0896,0.0896,0.0896,0.0896,0.0549,0.0575,0.059,0.0626,0.0646,0.0673,0.0688,0.0709,0.0729,0.0763,0.0785,0.0803,0.0829,0.086,0.0885,0.0892,0.0902,0.0899,0.0909,0.0905,0.0906,0.0906,0.0901,0.0901,0.0901,0.091,0.091,0.091]},{"header":{"parameterUnit":"m.s-1","parameterCategory":1,"la1":30.2991,"la2":30.254,"lo1":-89.0895,"lo2":-89.0444,"dy":0.0017,"dx":0.0017,"nx":28,"ny":28,"refTime":"2024-04-18T03:00:00:Z","depth":0,"parameterNumber":3,"parameterNumberName":"V-component_of_WINDS"},"data":[0,0,0,0,0,0,0,0,0,0,0,0,0,0,0,0,0,0,0,0,0,0,0,0,0,0,0,0,0,0,0,0,0,0,0,0,0,0,0,0,0,0,0,0,0,0,0,0,0,0,0,0,0,0,0,0,0,0,2.9243,2.9243,0,2.9254,2.9254,2.9254,2.9218,2.9217,2.9216,2.9215,2.9225,2.9226,2.9228,0,0,0,0,0,0,0,0,0,0,0,0,0,2.9188,2.9189,2.9243,2.9243,2.9243,2.9254,2.9254,2.9255,2.9219,2.9217,2.9216,2.9215,2.9225,2.9226,2.9228,0,0,0,0,0,0,0,0,0,0,0,0,0,2.9207,2.9189,2.9243,2.9227,2.9225,2.9254,2.9254,2.9255,2.9219,2.9217,2.9216,2.9214,2.9224,2.9226,2.9228,2.9273,0,0,2.9234,2.9235,0,0,0,0,0,0,0,0,2.9206,2.9209,2.9229,2.9228,2.9226,2.9233,2.9239,2.9261,2.9219,2.9221,2.9215,2.9213,2.9229,2.9231,2.9236,2.9273,2.9274,2.9234,2.9235,2.9236,2.9237,0,0,0,0,0,0,0,2.9204,2.9208,2.9247,2.9229,2.9228,2.9218,2.9219,2.9243,2.9234,2.9221,2.9218,2.922,2.9228,2.9234,2.9236,2.9274,2.9234,2.9236,2.9237,2.9238,2.9348,2.9349,0,0,0,0,0,0,2.9205,2.9207,2.9247,2.9248,2.9212,2.922,2.9221,2.9233,2.9234,2.9232,2.9222,2.9219,2.9232,2.9234,2.9236,2.9289,2.9236,2.9238,2.9239,2.9346,2.9348,2.935,0,0,0,0,0,0,2.9204,2.9209,2.9246,2.9227,2.9231,2.9223,2.9236,2.9234,2.924,2.9234,2.9233,2.923,2.9231,2.9234,2.9264,2.9289,2.9239,2.9241,2.9344,2.9347,2.9349,2.9394,0,0,0,0,0,0,2.9203,2.9209,2.9226,2.9227,2.9232,2.9275,2.9238,2.9235,2.9244,2.924,2.9242,2.924,2.923,2.9261,2.9266,2.929,2.9242,2.9342,2.9345,2.9348,2.939,2.9398,2.9405,0,0,0,0,0,2.9201,2.9238,2.9228,2.9233,2.9254,2.9276,2.9279,2.9266,2.9246,2.9263,2.9259,2.924,2.9285,2.9265,2.927,2.9295,2.934,2.9344,2.9348,2.9387,2.9397,2.9404,0,0,0,0,0,0,2.924,2.9238,2.9226,2.9265,2.9271,2.927,2.9291,2.9276,2.9288,2.9284,2.9267,2.9268,2.9301,2.9301,2.9278,2.9338,2.9309,2.9314,2.9337,2.9346,2.9353,2.9352,2.9244,0,0,0,0,0,2.9253,2.9272,2.9269,2.9304,2.9307,2.9299,2.9308,2.9298,2.9304,2.9306,2.9304,2.931,2.9325,2.9335,2.9349,2.939,2.939,2.941,2.9417,2.9423,2.9428,2.9449,2.9458,2.9363,2.9363,2.9363,0,0,2.928,2.9282,2.9295,2.9312,2.9315,2.9335,2.9301,2.9323,2.9338,2.9309,2.9338,2.9337,2.9342,2.9378,2.9393,2.9379,2.9454,2.9428,2.9433,2.9434,2.9454,2.9463,2.9471,2.9366,2.9365,2.9365,0,0,2.934,2.9343,2.9372,2.9376,2.9383,2.9377,2.9384,2.9385,2.9383,2.9412,2.9391,2.9407,2.9434,2.9439,2.9444,2.9506,2.9489,2.9511,2.9548,2.9569,2.9577,2.9583,2.9605,2.9613,2.9515,2.9515,2.9515,0,2.9373,2.9402,2.9389,2.9413,2.9421,2.9396,2.9425,2.943,2.944,2.9446,2.9429,2.9462,2.9464,2.95,2.9515,2.9521,2.9528,2.9511,2.9577,2.9583,2.9589,2.961,2.9618,2.9518,2.9518,2.9517,2.9517,0,2.9443,2.9463,2.9486,2.9497,2.9507,2.9534,2.9524,2.9536,2.9525,2.952,2.955,2.9551,2.9565,2.9572,2.9562,2.9608,2.9598,2.958,2.955,2.9601,2.962,2.9628,2.9522,2.9521,2.952,2.9519,0,0,2.9527,2.9531,2.9539,2.9544,2.9549,2.9564,2.9589,2.9603,2.9614,2.9622,2.9642,2.9665,2.9648,2.9654,2.9644,2.9663,2.9711,2.9641,2.9641,2.9655,2.9763,2.9777,2.9787,2.97,2.9701,2.9703,2.9762,0,2.9586,2.963,2.9619,2.9662,2.9681,2.9658,2.9679,2.9684,2.9681,2.9696,2.9692,2.9709,2.9684,2.9688,2.9706,2.9702,2.9733,2.9697,2.9719,2.972,2.9719,2.9797,2.9812,2.9869,2.977,2.9771,2.9772,0,2.9661,2.9673,2.9718,2.972,2.9728,2.9748,2.9759,2.9774,2.9779,2.9775,2.9783,2.9768,2.9792,2.9762,2.9795,2.9771,2.9779,2.9779,2.978,2.9782,2.9749,2.9801,2.9886,2.9895,2.9784,2.9783,2.9782,0,2.9719,2.9746,2.9776,2.9781,2.9784,2.9798,2.98,2.9804,2.9813,2.9823,2.9829,2.9841,2.9848,2.9858,2.9847,2.9826,2.9882,2.9851,2.9879,2.9879,2.9892,2.9891,2.998,2.9897,2.9896,2.9896,2.9896,0,2.9787,2.9816,2.9802,2.9821,2.9853,2.9839,2.987,2.9869,2.9872,2.989,2.987,2.9888,2.9872,2.9888,2.9879,2.9908,2.9911,2.9908,2.9906,2.991,2.9911,2.9916,2.9912,2.9898,2.9898,2.9898,2.9897,0,2.9857,2.9849,2.9881,2.9881,2.9882,2.9905,2.9905,2.9922,2.9917,2.994,2.9945,2.9937,2.9954,2.9944,2.9962,2.9956,2.9994,2.9985,2.9992,2.999,3.0019,3.0017,3.0114,3.0126,3.0035,3.0036,3.0037,0,2.9901,2.9922,2.9925,2.9936,2.9939,2.9957,2.9967,2.9953,2.9964,2.9971,2.9988,3.0003,3.0015,3.0044,3.0039,3.0053,3.0045,3.0078,3.0047,3.0051,3.0046,3.0045,3.0047,3.0085,3.0086,3.0087,3.0087,0,2.998,2.9975,2.9989,3.0003,3.0015,3.0025,3.0033,3.0043,3.003,3.0042,3.006,3.007,3.0088,3.0104,3.0115,3.0116,3.01,3.0097,3.0105,3.011,3.0113,3.0112,3.001,3.0095,3.0094,3.0094,3.0093,3.0093,3.0038,3.0056,3.0061,3.0078,3.0083,3.0091,3.0108,3.0105,3.012,3.0134,3.0125,3.0146,3.015,3.0164,3.0167,3.0183,3.0169,3.018,3.0183,3.0186,3.019,3.011,3.0185,3.0184,3.0184,3.0184,3.0184,0,3.0116,3.0118,3.0134,3.0146,3.016,3.0144,3.0152,3.0164,3.0183,3.0188,3.0201,3.0221,3.0236,3.0233,3.0247,3.026,3.0253,3.0264,3.0263,3.0264,3.0201,3.0193,3.027,3.027,3.027,3.027,3.027,3.027,3.0158,3.0189,3.0185,3.0217,3.0218,3.024,3.0246,3.0253,3.0257,3.0281,3.0294,3.0292,3.0294,3.0307,3.0321,3.0319,3.0325,3.0339,3.0335,3.0277,3.0268,3.026,3.0253,3.0341,3.0341,3.0397,3.0398,3.0398]}]]